Meath Environmental Platform

Observations for Trim Market St

Time AQI Temp °C Hum % Pres Pa CO μg/m³ H₂S μg/m³ NO μg/m³ NO₂ μg/m³ O₃ μg/m³ SO₂ μg/m³ PM1 μg/m³ PM2.5 μg/m³ PM10 μg/m³
Thursday 16 July 2026
18:48 2 29.4 38 65,653 0 11.83 0 12.7 34.95 0 9.98 15.19 22.22
18:47 2 29.4 38 65,666 0 9.93 0 12.61 36.17 0 7.84 13.07 18.15
18:46 2 29.4 38 65,684 0 8.97 0 11.73 30.74 0 9.98 15.73 21.42
18:45 2 29.4 38 65,698 0 11.3 0 14.13 31.18 0 10.69 16.26 23.88
18:44 2 29.4 38 65,696 0 11.27 0 13.13 31.87 0 7.84 17.33 24.69
18:43 2 29.4 38 65,724 0 10.55 0 12.84 32.93 0 6.41 12.55 18.16
18:42 2 29.4 38 65,724 0 12.21 0 12.95 34.73 0 8.55 15.22 22.26
18:38 2 29.5 38 65,760 0 11.91 0 12.64 30.59 0 7.13 13.1 19
18:36 2 29.5 37 65,780 0 14.32 0 13.76 35.98 0 8.55 15.24 20.65
18:35 2 29.5 37 65,799 0 14.18 0 13.07 34.58 0 9.26 15.25 20.66
18:28 2 29.7 37 65,858 0 15.08 0 12.97 33.01 0 7.84 12.62 19.06
18:22 2 29.9 37 65,862 0 18.64 0 13.93 31.64 0 7.84 12.09 15.77
18:21 2 29.9 37 65,868 0 19.71 0 13.82 31.76 0 7.84 14.22 22.36
18:20 2 29.9 37 65,878 0 25.15 0 16.53 34.39 0 9.26 16.89 24.84
18:19 2 30 36 65,896 0 25.49 0 17.42 37.1 0 7.84 14.24 19.09
18:18 2 30 36 65,916 0 23.08 0 16.15 31.25 0 8.55 16.39 22.41
18:17 2 30 36 65,935 0 28.66 0 21.46 29.88 0 6.41 13.19 19.94
18:16 2 30.1 36 65,966 0 26.11 0 26.67 20.55 0 7.13 13.75 19.97
18:15 2 30.1 36 65,974 0 22.84 0 31.99 8.48 0 6.41 12.69 18.32
18:14 2 30.1 36 65,979 0 22.33 0 20.79 26.2 0 9.26 16.97 24.14